Location: City of Moscow
(46.7306°N, 116.9989°W)
Time: 02:44:24
(UTC+00:00)

Cosmos 1842 - Pass Details

Date: 11 December 2025
Orbit: 415 x 426 km, 82.5° (Epoch: 14 January)

Event Time Altitude Azimuth Distance (km) Brightness Sun altitude
Rises 13:10:48 0° 14° (NNE) 2,410 6.6 -21.6°
Enters shadow 14:15:07 -64° 342° (NNW) 11,981 10.0 -11.1°
Maximum altitude 14:49:15 58° 264° (W) 505 2.9 -5.8°
